| time (UTC) | temp F | wind direction | speed MPH | gust MPH | rain 1hr in | rain 24hr in | rain mn in | humidity % | barometer mb |
| 20260505164048 | 79 | 134 | 1.0 | 8.0 | 0.00 | 0.00 | 0.00 | 50 | 1017.4 |
| 20260505163548 | 79 | 317 | 3.0 | 8.0 | 0.00 | 0.00 | 0.00 | 50 | 1017.4 |
| 20260505163100 | 78 | 144 | 1.0 | 12.0 | 0.00 | 0.00 | 0.00 | 51 | 1017.3 |
| 20260505162548 | 77 | 111 | 3.0 | 12.0 | 0.00 | 0.00 | 0.00 | 51 | 1017.4 |
| 20260505162048 | 77 | 247 | 2.0 | 9.0 | 0.00 | 0.00 | 0.00 | 51 | 1017.3 |
| 20260505161601 | 77 | 288 | 3.0 | 9.0 | 0.00 | 0.00 | 0.00 | 50 | 1017.3 |
| 20260505161052 | 77 | 256 | 2.0 | 8.0 | 0.00 | 0.00 | 0.00 | 53 | 1017.5 |
| 20260505160554 | 77 | 246 | 2.0 | 8.0 | 0.00 | 0.00 | 0.00 | 52 | 1017.5 |
| 20260505153110 | 75 | 0 | 2.0 | 10.0 | 0.00 | 0.00 | 0.00 | 56 | 1017.7 |
| 20260505152554 | 75 | 285 | 2.0 | 11.0 | 0.00 | 0.00 | 0.00 | 55 | 1017.8 |
| 20260505152048 | 74 | 247 | 2.0 | 11.0 | 0.00 | 0.00 | 0.00 | 56 | 1017.8 |
| 20260505151558 | 74 | 241 | 3.0 | 11.0 | 0.00 | 0.00 | 0.00 | 56 | 1017.8 |
| 20260505151050 | 74 | 94 | 2.0 | 8.0 | 0.00 | 0.00 | 0.00 | 58 | 1017.9 |
| 20260505150550 | 74 | 249 | 3.0 | 10.0 | 0.00 | 0.00 | 0.00 | 57 | 1017.9 |
| 20260505140551 | 69 | 219 | 3.0 | 14.0 | 0.00 | 0.00 | 0.00 | 66 | 1017.7 |
| 20260505124601 | 63 | 245 | 1.0 | 12.0 | 0.00 | 0.00 | 0.00 | 76 | 1018.0 |
| 20260505124052 | 62 | 286 | 1.0 | 12.0 | 0.00 | 0.00 | 0.00 | 76 | 1018.0 |
| 20260505123551 | 62 | 270 | 0.0 | 7.0 | 0.00 | 0.00 | 0.00 | 77 | 1018.0 |
| 20260505123059 | 61 | 0 | 2.0 | 7.0 | 0.00 | 0.00 | 0.00 | 79 | 1018.0 |
| 20260505122550 | 60 | 0 | 1.0 | 10.0 | 0.00 | 0.00 | 0.00 | 81 | 1017.9 |
| 20260505122051 | 59 | 318 | 3.0 | 10.0 | 0.00 | 0.00 | 0.00 | 82 | 1017.9 |
| 20260505121553 | 58 | 116 | 0.0 | 3.0 | 0.00 | 0.00 | 0.00 | 85 | 1017.9 |
| 20260505121051 | 57 | 0 | 0.0 | 2.0 | 0.00 | 0.00 | 0.00 | 87 | 1017.9 |
| 20260505120552 | 56 | 0 | 0.0 | 2.0 | 0.00 | 0.00 | 0.00 | 88 | 1018.0 |
| 20260505120106 | 56 | 0 | 0.0 | 1.0 | 0.00 | 0.00 | 0.00 | 90 | 1017.8 |
| 20260505115551 | 55 | 0 | 0.0 | 1.0 | 0.00 | 0.00 | 0.00 | 91 | 1017.9 |
| 20260505115048 | 55 | 0 | 0.0 | 1.0 | 0.00 | 0.00 | 0.00 | 93 | 1017.8 |
| 20260505114555 | 54 | 0 | 0.0 | 0.0 | 0.00 | 0.00 | 0.00 | 94 | 1017.8 |
| 20260505114049 | 53 | 0 | 0.0 | 0.0 | 0.00 | 0.00 | 0.00 | 95 | 1017.8 |
| 20260505113548 | 53 | 0 | 0.0 | 0.0 | 0.00 | 0.00 | 0.00 | 96 | 1017.7 |
| 20260505113109 | 52 | 0 | 0.0 | 0.0 | 0.00 | 0.00 | 0.00 | 96 | 1017.6 |
| 20260505112553 | 51 | 0 | 0.0 | 0.0 | 0.00 | 0.00 | 0.00 | 96 | 1017.6 |
| 20260505112050 | 51 | 0 | 0.0 | 0.0 | 0.00 | 0.00 | 0.00 | 96 | 1017.5 |
| 20260505111554 | 51 | 0 | 0.0 | 0.0 | 0.00 | 0.00 | 0.00 | 96 | 1017.4 |
| 20260505111050 | 50 | 0 | 0.0 | 0.0 | 0.00 | 0.00 | 0.00 | 96 | 1017.4 |
| 20260505110548 | 50 | 0 | 0.0 | 0.0 | 0.00 | 0.00 | 0.00 | 95 | 1017.4 |
| 20260505102048 | 50 | 0 | 0.0 | 0.0 | 0.00 | 0.00 | 0.00 | 93 | 1016.8 |
| 20260505101554 | 50 | 0 | 0.0 | 0.0 | 0.00 | 0.00 | 0.00 | 93 | 1016.7 |
| 20260505101050 | 50 | 0 | 0.0 | 0.0 | 0.00 | 0.00 | 0.00 | 93 | 1016.7 |
| 20260505100548 | 50 | 0 | 0.0 | 0.0 | 0.00 | 0.00 | 0.00 | 92 | 1016.7 |
| 20260505100048 | 51 | 0 | 0.0 | 0.0 | 0.00 | 0.00 | 0.00 | 92 | 1016.8 |
| 20260505095550 | 51 | 0 | 0.0 | 0.0 | 0.00 | 0.00 | 0.00 | 92 | 1016.6 |
| 20260505095049 | 51 | 0 | 0.0 | 0.0 | 0.00 | 0.00 | 0.00 | 92 | 1016.7 |
| 20260505094552 | 51 | 0 | 0.0 | 0.0 | 0.00 | 0.00 | 0.00 | 92 | 1016.5 |
| 20260505094050 | 51 | 0 | 0.0 | 0.0 | 0.00 | 0.00 | 0.00 | 92 | 1016.5 |
| 20260505093550 | 51 | 0 | 0.0 | 0.0 | 0.00 | 0.00 | 0.00 | 92 | 1016.5 |
| 20260505093102 | 51 | 0 | 0.0 | 0.0 | 0.00 | 0.00 | 0.00 | 92 | 1016.6 |
| 20260505092550 | 51 | 0 | 0.0 | 0.0 | 0.00 | 0.00 | 0.00 | 92 | 1016.5 |
| 20260505092049 | 51 | 0 | 0.0 | 0.0 | 0.00 | 0.00 | 0.00 | 91 | 1016.5 |
| 20260505091553 | 51 | 0 | 0.0 | 0.0 | 0.00 | 0.00 | 0.00 | 91 | 1016.5 |
| 20260505091048 | 52 | 0 | 0.0 | 0.0 | 0.00 | 0.00 | 0.00 | 90 | 1016.4 |
| 20260505090548 | 52 | 0 | 0.0 | 0.0 | 0.00 | 0.00 | 0.00 | 90 | 1016.4 |
| 20260505090053 | 52 | 0 | 0.0 | 0.0 | 0.00 | 0.00 | 0.00 | 90 | 1016.3 |
| 20260505085549 | 52 | 0 | 0.0 | 0.0 | 0.00 | 0.00 | 0.00 | 89 | 1016.4 |
| 20260505085052 | 52 | 0 | 0.0 | 0.0 | 0.00 | 0.00 | 0.00 | 89 | 1016.4 |
| 20260505084553 | 53 | 0 | 0.0 | 0.0 | 0.00 | 0.00 | 0.00 | 90 | 1016.3 |
| 20260505084054 | 53 | 0 | 0.0 | 0.0 | 0.00 | 0.00 | 0.00 | 89 | 1016.3 |
| 20260505083553 | 53 | 0 | 0.0 | 0.0 | 0.00 | 0.00 | 0.00 | 89 | 1016.4 |
| 20260505083055 | 53 | 0 | 0.0 | 0.0 | 0.00 | 0.00 | 0.00 | 88 | 1016.4 |
| 20260505082549 | 53 | 0 | 0.0 | 0.0 | 0.00 | 0.00 | 0.00 | 88 | 1016.3 |
| 20260505082049 | 53 | 0 | 0.0 | 0.0 | 0.00 | 0.00 | 0.00 | 88 | 1016.3 |
| 20260505081558 | 53 | 0 | 0.0 | 0.0 | 0.00 | 0.00 | 0.00 | 88 | 1016.2 |
| 20260505081049 | 53 | 0 | 0.0 | 0.0 | 0.00 | 0.00 | 0.00 | 87 | 1016.2 |
| 20260505080548 | 54 | 0 | 0.0 | 0.0 | 0.00 | 0.00 | 0.00 | 86 | 1016.2 |
| 20260505080054 | 54 | 0 | 0.0 | 0.0 | 0.00 | 0.00 | 0.00 | 86 | 1016.2 |
| 20260505075548 | 54 | 0 | 0.0 | 0.0 | 0.00 | 0.00 | 0.00 | 85 | 1016.2 |
| 20260505075048 | 54 | 0 | 0.0 | 0.0 | 0.00 | 0.00 | 0.00 | 85 | 1016.2 |
| 20260505074551 | 55 | 0 | 0.0 | 0.0 | 0.00 | 0.00 | 0.00 | 85 | 1016.2 |
| 20260505074049 | 55 | 0 | 0.0 | 0.0 | 0.00 | 0.00 | 0.00 | 84 | 1016.1 |
| 20260505073550 | 55 | 0 | 0.0 | 0.0 | 0.00 | 0.00 | 0.00 | 84 | 1016.3 |
| 20260505073050 | 55 | 0 | 0.0 | 0.0 | 0.00 | 0.00 | 0.00 | 84 | 1016.1 |
| 20260505072548 | 55 | 0 | 0.0 | 0.0 | 0.00 | 0.00 | 0.00 | 83 | 1016.0 |
| 20260505072051 | 55 | 0 | 0.0 | 0.0 | 0.00 | 0.00 | 0.00 | 83 | 1016.1 |
| 20260505071552 | 56 | 0 | 0.0 | 0.0 | 0.00 | 0.00 | 0.00 | 82 | 1016.2 |
| 20260505071050 | 56 | 0 | 0.0 | 0.0 | 0.00 | 0.00 | 0.00 | 81 | 1016.0 |
| 20260505070550 | 56 | 0 | 0.0 | 0.0 | 0.00 | 0.00 | 0.00 | 81 | 1016.1 |
| 20260505070053 | 57 | 0 | 0.0 | 0.0 | 0.00 | 0.00 | 0.00 | 81 | 1016.1 |
| 20260505065550 | 57 | 0 | 0.0 | 0.0 | 0.00 | 0.00 | 0.00 | 80 | 1016.1 |
| 20260505065049 | 57 | 0 | 0.0 | 0.0 | 0.00 | 0.00 | 0.00 | 80 | 1016.1 |
| 20260505064559 | 57 | 0 | 0.0 | 0.0 | 0.00 | 0.00 | 0.00 | 79 | 1016.1 |
| 20260505064048 | 58 | 0 | 0.0 | 0.0 | 0.00 | 0.00 | 0.00 | 79 | 1016.1 |
| 20260505063548 | 58 | 0 | 0.0 | 0.0 | 0.00 | 0.00 | 0.00 | 78 | 1015.9 |
| 20260505063055 | 58 | 0 | 0.0 | 0.0 | 0.00 | 0.00 | 0.00 | 78 | 1016.0 |
| 20260505062549 | 58 | 0 | 0.0 | 0.0 | 0.00 | 0.00 | 0.00 | 77 | 1015.9 |
| 20260505062049 | 58 | 0 | 0.0 | 0.0 | 0.00 | 0.00 | 0.00 | 77 | 1016.0 |
| 20260505061552 | 59 | 0 | 0.0 | 0.0 | 0.00 | 0.00 | 0.00 | 76 | 1016.0 |
| 20260505061052 | 59 | 0 | 0.0 | 2.0 | 0.00 | 0.00 | 0.00 | 76 | 1016.0 |
| 20260505060548 | 59 | 0 | 0.0 | 2.0 | 0.00 | 0.00 | 0.00 | 75 | 1015.9 |
| 20260505060100 | 59 | 0 | 0.0 | 1.0 | 0.00 | 0.00 | 0.00 | 75 | 1016.0 |
| 20260505055551 | 59 | 0 | 0.0 | 1.0 | 0.00 | 0.00 | 0.00 | 75 | 1016.0 |
| 20260505055053 | 59 | 0 | 0.0 | 1.0 | 0.00 | 0.00 | 0.00 | 75 | 1015.9 |
| 20260505054554 | 60 | 0 | 0.0 | 1.0 | 0.00 | 0.00 | 0.00 | 75 | 1015.9 |
| 20260505054049 | 60 | 0 | 0.0 | 1.0 | 0.00 | 0.00 | 0.00 | 74 | 1016.0 |
| 20260505053548 | 60 | 0 | 0.0 | 0.0 | 0.00 | 0.00 | 0.00 | 74 | 1016.1 |
| 20260505053115 | 60 | 0 | 0.0 | 1.0 | 0.00 | 0.00 | 0.00 | 74 | 1016.2 |
| 20260505052548 | 60 | 0 | 0.0 | 1.0 | 0.00 | 0.00 | 0.00 | 73 | 1016.2 |
| 20260505052049 | 61 | 0 | 0.0 | 1.0 | 0.00 | 0.00 | 0.00 | 73 | 1016.2 |
| 20260505051555 | 61 | 0 | 0.0 | 2.0 | 0.00 | 0.00 | 0.00 | 72 | 1016.1 |
| 20260505051049 | 61 | 291 | 0.0 | 2.0 | 0.00 | 0.00 | 0.00 | 72 | 1016.3 |
| 20260505050549 | 61 | 279 | 0.0 | 2.0 | 0.00 | 0.00 | 0.00 | 72 | 1016.2 |
| 20260505050104 | 61 | 0 | 0.0 | 2.0 | 0.00 | 0.00 | 0.00 | 71 | 1016.4 |
| 20260505041553 | 63 | 0 | 0.0 | 5.0 | 0.00 | 0.00 | 0.00 | 68 | 1016.1 |
| 20260505041051 | 63 | 254 | 1.0 | 5.0 | 0.00 | 0.00 | 0.00 | 68 | 1016.1 |
| 20260505040550 | 63 | 229 | 0.0 | 4.0 | 0.00 | 0.00 | 0.00 | 68 | 1016.0 |
| 20260505040053 | 64 | 256 | 0.0 | 6.0 | 0.00 | 0.00 | 0.00 | 67 | 1016.1 |
| 20260505035551 | 64 | 17 | 1.0 | 6.0 | 0.00 | 0.00 | 0.00 | 67 | 1016.0 |
| 20260505035047 | 64 | 229 | 1.0 | 4.0 | 0.00 | 0.00 | 0.00 | 67 | 1016.1 |
| 20260505034613 | 64 | 75 | 0.0 | 7.0 | 0.00 | 0.00 | 0.00 | 66 | 1016.1 |
| 20260505034048 | 64 | 0 | 1.0 | 7.0 | 0.00 | 0.00 | 0.00 | 66 | 1016.0 |
| 20260505033548 | 64 | 0 | 1.0 | 4.0 | 0.00 | 0.00 | 0.00 | 66 | 1016.2 |
| 20260505033057 | 64 | 195 | 0.0 | 8.0 | 0.00 | 0.00 | 0.00 | 66 | 1016.0 |
| 20260505032547 | 65 | 306 | 0.0 | 8.0 | 0.00 | 0.00 | 0.00 | 65 | 1016.0 |
| 20260505032047 | 65 | 239 | 1.0 | 4.0 | 0.00 | 0.00 | 0.00 | 65 | 1016.1 |
| 20260505031555 | 65 | 0 | 0.0 | 4.0 | 0.00 | 0.00 | 0.00 | 65 | 1016.1 |
| 20260505031048 | 65 | 122 | 0.0 | 7.0 | 0.00 | 0.00 | 0.00 | 65 | 1016.1 |
| 20260505030548 | 66 | 263 | 1.0 | 14.0 | 0.00 | 0.00 | 0.00 | 65 | 1015.9 |
| 20260505030053 | 66 | 279 | 0.0 | 14.0 | 0.00 | 0.00 | 0.00 | 64 | 1016.0 |
| 20260505025549 | 66 | 232 | 1.0 | 4.0 | 0.00 | 0.00 | 0.00 | 64 | 1016.0 |
| 20260505025048 | 66 | 158 | 0.0 | 4.0 | 0.00 | 0.00 | 0.00 | 64 | 1016.1 |
| 20260505024553 | 66 | 290 | 1.0 | 8.0 | 0.00 | 0.00 | 0.00 | 64 | 1015.9 |
| 20260505024048 | 66 | 272 | 1.0 | 8.0 | 0.00 | 0.00 | 0.00 | 64 | 1015.9 |
| 20260505023549 | 66 | 239 | 1.0 | 6.0 | 0.00 | 0.00 | 0.00 | 64 | 1015.9 |
| 20260505023053 | 67 | 245 | 1.0 | 6.0 | 0.00 | 0.00 | 0.00 | 63 | 1015.8 |
| 20260505022551 | 67 | 296 | 1.0 | 6.0 | 0.00 | 0.00 | 0.00 | 63 | 1015.8 |
| 20260505022048 | 67 | 271 | 1.0 | 3.0 | 0.00 | 0.00 | 0.00 | 62 | 1015.7 |
| 20260505021552 | 67 | 319 | 0.0 | 11.0 | 0.00 | 0.00 | 0.00 | 61 | 1015.7 |
| 20260505021049 | 67 | 157 | 1.0 | 11.0 | 0.00 | 0.00 | 0.00 | 60 | 1015.6 |
| 20260505020548 | 67 | 209 | 0.0 | 11.0 | 0.00 | 0.00 | 0.00 | 58 | 1015.5 |
| 20260505020057 | 68 | 290 | 1.0 | 11.0 | 0.00 | 0.00 | 0.00 | 57 | 1015.5 |
| 20260505015550 | 68 | 246 | 0.0 | 4.0 | 0.00 | 0.00 | 0.00 | 55 | 1015.4 |
| 20260505015048 | 68 | 226 | 0.0 | 8.0 | 0.00 | 0.00 | 0.00 | 53 | 1015.3 |
| 20260505014556 | 68 | 0 | 1.0 | 8.0 | 0.00 | 0.00 | 0.00 | 52 | 1015.4 |
| 20260505014051 | 68 | 94 | 2.0 | 8.0 | 0.00 | 0.00 | 0.00 | 52 | 1015.3 |
| 20260505013551 | 68 | 267 | 1.0 | 8.0 | 0.00 | 0.00 | 0.00 | 50 | 1015.3 |
| 20260505013053 | 68 | 266 | 1.0 | 2.0 | 0.00 | 0.00 | 0.00 | 49 | 1015.1 |
| 20260505012552 | 68 | 0 | 0.0 | 1.0 | 0.00 | 0.00 | 0.00 | 49 | 1015.0 |
| 20260505012052 | 68 | 0 | 0.0 | 1.0 | 0.00 | 0.00 | 0.00 | 48 | 1014.9 |
| 20260505011610 | 69 | 0 | 0.0 | 1.0 | 0.00 | 0.00 | 0.00 | 47 | 1015.0 |
| 20260505011051 | 69 | 0 | 0.0 | 1.0 | 0.00 | 0.00 | 0.00 | 47 | 1014.9 |
| 20260505010551 | 69 | 281 | 0.0 | 2.0 | 0.00 | 0.00 | 0.00 | 46 | 1014.7 |
| 20260505010056 | 70 | 0 | 0.0 | 2.0 | 0.00 | 0.00 | 0.00 | 45 | 1014.8 |
| 20260505005552 | 70 | 0 | 0.0 | 2.0 | 0.00 | 0.00 | 0.00 | 45 | 1014.5 |
| 20260505005052 | 70 | 0 | 0.0 | 3.0 | 0.00 | 0.00 | 0.00 | 45 | 1014.5 |
| 20260505004559 | 70 | 0 | 0.0 | 4.0 | 0.00 | 0.00 | 0.00 | 44 | 1014.5 |
| 20260505004052 | 70 | 0 | 0.0 | 4.0 | 0.00 | 0.00 | 0.00 | 44 | 1014.5 |
| 20260505003551 | 71 | 236 | 0.0 | 4.0 | 0.00 | 0.00 | 0.00 | 44 | 1014.3 |
| 20260505003056 | 71 | 242 | 0.0 | 0.0 | 0.00 | 0.00 | 0.00 | 44 | 1014.4 |
| 20260505002552 | 71 | 0 | 0.0 | 2.0 | 0.00 | 0.00 | 0.00 | 43 | 1014.2 |
| 20260505002050 | 71 | 0 | 0.0 | 2.0 | 0.00 | 0.00 | 0.00 | 42 | 1014.2 |
| 20260505001620 | 72 | 0 | 0.0 | 1.0 | 0.00 | 0.00 | 0.00 | 42 | 1014.2 |
| 20260505001052 | 72 | 0 | 0.0 | 1.0 | 0.00 | 0.00 | 0.00 | 41 | 1014.2 |
| 20260505000551 | 73 | 0 | 0.0 | 3.0 | 0.00 | 0.00 | 0.00 | 40 | 1014.2 |
| 20260505000108 | 73 | 0 | 0.0 | 3.0 | 0.00 | 0.00 | 0.00 | 40 | 1014.0 |
| 20260504235551 | 74 | 254 | 0.0 | 5.0 | 0.00 | 0.00 | 0.00 | 39 | 1014.1 |
| 20260504235056 | 74 | 0 | 0.0 | 5.0 | 0.00 | 0.00 | 0.00 | 39 | 1014.0 |
| 20260504234558 | 74 | 252 | 0.0 | 5.0 | 0.00 | 0.00 | 0.00 | 38 | 1013.9 |
| 20260504234052 | 75 | 0 | 0.0 | 4.0 | 0.00 | 0.00 | 0.00 | 38 | 1013.8 |
| 20260504233551 | 75 | 0 | 0.0 | 4.0 | 0.00 | 0.00 | 0.00 | 37 | 1013.8 |
| 20260504233110 | 76 | 261 | 0.0 | 9.0 | 0.00 | 0.00 | 0.00 | 36 | 1013.8 |
| 20260504232552 | 76 | 0 | 1.0 | 9.0 | 0.00 | 0.00 | 0.00 | 36 | 1013.8 |
| 20260504232054 | 77 | 246 | 1.0 | 9.0 | 0.00 | 0.00 | 0.00 | 35 | 1013.6 |
| 20260504231556 | 78 | 0 | 0.0 | 7.0 | 0.00 | 0.00 | 0.00 | 34 | 1013.5 |
| 20260504231048 | 78 | 136 | 2.0 | 7.0 | 0.00 | 0.00 | 0.00 | 33 | 1013.6 |
| 20260504230553 | 79 | 267 | 0.0 | 4.0 | 0.00 | 0.00 | 0.00 | 31 | 1013.7 |
| 20260504230054 | 80 | 0 | 1.0 | 4.0 | 0.00 | 0.00 | 0.00 | 31 | 1013.6 |
| 20260504225556 | 80 | 0 | 0.0 | 7.0 | 0.00 | 0.00 | 0.00 | 30 | 1013.5 |
| 20260504225051 | 80 | 241 | 2.0 | 7.0 | 0.00 | 0.00 | 0.00 | 29 | 1013.6 |
| 20260504224556 | 81 | 158 | 0.0 | 5.0 | 0.00 | 0.00 | 0.00 | 30 | 1013.6 |
| 20260504224051 | 81 | 261 | 0.0 | 5.0 | 0.00 | 0.00 | 0.00 | 29 | 1013.6 |
| 20260504223550 | 81 | 257 | 0.0 | 7.0 | 0.00 | 0.00 | 0.00 | 29 | 1013.6 |
| 20260504223055 | 80 | 294 | 0.0 | 7.0 | 0.00 | 0.00 | 0.00 | 29 | 1013.7 |
| 20260504222553 | 81 | 62 | 0.0 | 7.0 | 0.00 | 0.00 | 0.00 | 28 | 1013.6 |
| 20260504222050 | 80 | 0 | 2.0 | 7.0 | 0.00 | 0.00 | 0.00 | 29 | 1013.6 |
| 20260504221555 | 80 | 311 | 2.0 | 7.0 | 0.00 | 0.00 | 0.00 | 28 | 1013.6 |
| 20260504221053 | 81 | 254 | 1.0 | 8.0 | 0.00 | 0.00 | 0.00 | 27 | 1013.6 |
| 20260504220551 | 81 | 270 | 2.0 | 8.0 | 0.00 | 0.00 | 0.00 | 28 | 1013.6 |
| 20260504220053 | 81 | 0 | 0.0 | 8.0 | 0.00 | 0.00 | 0.00 | 28 | 1013.6 |
| 20260504215551 | 80 | 262 | 4.0 | 8.0 | 0.00 | 0.00 | 0.00 | 28 | 1013.6 |
| 20260504215048 | 81 | 242 | 3.0 | 7.0 | 0.00 | 0.00 | 0.00 | 28 | 1013.6 |
| 20260504214557 | 81 | 0 | 2.0 | 10.0 | 0.00 | 0.00 | 0.00 | 28 | 1013.6 |
| 20260504214050 | 81 | 0 | 3.0 | 11.0 | 0.00 | 0.00 | 0.00 | 29 | 1013.6 |
| 20260504213549 | 81 | 0 | 3.0 | 11.0 | 0.00 | 0.00 | 0.00 | 27 | 1013.6 |
| 20260504213058 | 82 | 101 | 1.0 | 11.0 | 0.00 | 0.00 | 0.00 | 27 | 1013.6 |
| 20260504212549 | 81 | 0 | 0.0 | 9.0 | 0.00 | 0.00 | 0.00 | 30 | 1013.6 |
| 20260504212049 | 80 | 246 | 2.0 | 9.0 | 0.00 | 0.00 | 0.00 | 29 | 1013.7 |
| 20260504211557 | 80 | 269 | 2.0 | 11.0 | 0.00 | 0.00 | 0.00 | 29 | 1013.9 |
| 20260504211048 | 81 | 0 | 3.0 | 11.0 | 0.00 | 0.00 | 0.00 | 29 | 1013.8 |
| 20260504210553 | 81 | 0 | 2.0 | 12.0 | 0.00 | 0.00 | 0.00 | 29 | 1013.7 |
| 20260504210055 | 80 | 235 | 3.0 | 12.0 | 0.00 | 0.00 | 0.00 | 30 | 1013.6 |
| 20260504205551 | 81 | 0 | 3.0 | 8.0 | 0.00 | 0.00 | 0.00 | 29 | 1013.8 |
| 20260504205052 | 81 | 250 | 2.0 | 10.0 | 0.00 | 0.00 | 0.00 | 30 | 1013.8 |
| 20260504204558 | 81 | 0 | 0.0 | 10.0 | 0.00 | 0.00 | 0.00 | 30 | 1013.8 |
| 20260504204050 | 81 | 230 | 1.0 | 10.0 | 0.00 | 0.00 | 0.00 | 30 | 1013.9 |
| 20260504203550 | 81 | 0 | 3.0 | 10.0 | 0.00 | 0.00 | 0.00 | 31 | 1014.0 |
| 20260504203058 | 81 | 253 | 2.0 | 7.0 | 0.00 | 0.00 | 0.00 | 29 | 1013.8 |
| 20260504202550 | 81 | 293 | 1.0 | 7.0 | 0.00 | 0.00 | 0.00 | 30 | 1014.0 |
| 20260504202051 | 81 | 256 | 1.0 | 10.0 | 0.00 | 0.00 | 0.00 | 30 | 1014.0 |
| 20260504201552 | 81 | 115 | 1.0 | 11.0 | 0.00 | 0.00 | 0.00 | 31 | 1014.2 |
| 20260504201048 | 81 | 197 | 1.0 | 13.0 | 0.00 | 0.00 | 0.00 | 30 | 1014.2 |
| 20260504200550 | 80 | 158 | 0.0 | 13.0 | 0.00 | 0.00 | 0.00 | 32 | 1014.2 |
| 20260504195550 | 79 | 257 | 3.0 | 10.0 | 0.00 | 0.00 | 0.00 | 32 | 1014.2 |
| 20260504195050 | 79 | 244 | 4.0 | 13.0 | 0.00 | 0.00 | 0.00 | 31 | 1014.4 |
| 20260504194601 | 79 | 304 | 1.0 | 13.0 | 0.00 | 0.00 | 0.00 | 32 | 1014.4 |
| 20260504194051 | 79 | 288 | 5.0 | 13.0 | 0.00 | 0.00 | 0.00 | 31 | 1014.6 |
| 20260504193551 | 79 | 255 | 3.0 | 13.0 | 0.00 | 0.00 | 0.00 | 30 | 1014.7 |
| 20260504193057 | 79 | 229 | 3.0 | 9.0 | 0.00 | 0.00 | 0.00 | 30 | 1014.8 |
| 20260504192546 | 79 | 265 | 1.0 | 11.0 | 0.00 | 0.00 | 0.00 | 31 | 1014.5 |
| 20260504192048 | 78 | 151 | 2.0 | 11.0 | 0.00 | 0.00 | 0.00 | 32 | 1014.8 |
| 20260504191608 | 78 | 268 | 4.0 | 12.0 | 0.00 | 0.00 | 0.00 | 33 | 1014.8 |
| 20260504191048 | 78 | 113 | 4.0 | 12.0 | 0.00 | 0.00 | 0.00 | 32 | 1015.0 |
| 20260504190549 | 79 | 227 | 3.0 | 11.0 | 0.00 | 0.00 | 0.00 | 33 | 1015.0 |
| 20260504190053 | 79 | 227 | 2.0 | 9.0 | 0.00 | 0.00 | 0.00 | 32 | 1015.1 |
| 20260504185548 | 78 | 214 | 1.0 | 6.0 | 0.00 | 0.00 | 0.00 | 33 | 1015.0 |
| 20260504185047 | 77 | 324 | 1.0 | 11.0 | 0.00 | 0.00 | 0.00 | 33 | 1015.4 |
| 20260504184550 | 77 | 240 | 5.0 | 11.0 | 0.00 | 0.00 | 0.00 | 32 | 1015.5 |
| 20260504184048 | 78 | 273 | 2.0 | 7.0 | 0.00 | 0.00 | 0.00 | 33 | 1015.5 |
| 20260504183547 | 78 | 217 | 3.0 | 7.0 | 0.00 | 0.00 | 0.00 | 33 | 1015.4 |
| 20260504183056 | 78 | 311 | 2.0 | 7.0 | 0.00 | 0.00 | 0.00 | 33 | 1015.4 |
| 20260504182548 | 77 | 231 | 2.0 | 7.0 | 0.00 | 0.00 | 0.00 | 34 | 1015.5 |
| 20260504182047 | 76 | 88 | 2.0 | 11.0 | 0.00 | 0.00 | 0.00 | 35 | 1015.6 |
| 20260504181557 | 76 | 13 | 3.0 | 11.0 | 0.00 | 0.00 | 0.00 | 34 | 1015.7 |
| 20260504181047 | 77 | 286 | 3.0 | 10.0 | 0.00 | 0.00 | 0.00 | 34 | 1015.6 |
| 20260504180547 | 76 | 260 | 2.0 | 11.0 | 0.00 | 0.00 | 0.00 | 34 | 1015.8 |
| 20260504180054 | 76 | 44 | 4.0 | 11.0 | 0.00 | 0.00 | 0.00 | 35 | 1015.6 |
| 20260504175546 | 76 | 300 | 3.0 | 10.0 | 0.00 | 0.00 | 0.00 | 34 | 1015.8 |
| 20260504175048 | 75 | 334 | 3.0 | 10.0 | 0.00 | 0.00 | 0.00 | 35 | 1015.8 |
| 20260504174553 | 75 | 285 | 4.0 | 11.0 | 0.00 | 0.00 | 0.00 | 35 | 1015.8 |
| 20260504174047 | 76 | 250 | 5.0 | 11.0 | 0.00 | 0.00 | 0.00 | 33 | 1015.9 |
| 20260504173550 | 76 | 260 | 3.0 | 11.0 | 0.00 | 0.00 | 0.00 | 34 | 1016.0 |
| 20260504173056 | 75 | 250 | 2.0 | 11.0 | 0.00 | 0.00 | 0.00 | 36 | 1016.0 |
| 20260504172550 | 75 | 272 | 2.0 | 11.0 | 0.00 | 0.00 | 0.00 | 37 | 1016.2 |
| 20260504172047 | 74 | 226 | 3.0 | 11.0 | 0.00 | 0.00 | 0.00 | 37 | 1016.3 |
| 20260504171556 | 74 | 236 | 5.0 | 11.0 | 0.00 | 0.00 | 0.00 | 39 | 1016.5 |
| 20260504171047 | 75 | 286 | 3.0 | 9.0 | 0.00 | 0.00 | 0.00 | 38 | 1016.3 |
| 20260504170547 | 75 | 265 | 2.0 | 9.0 | 0.00 | 0.00 | 0.00 | 37 | 1016.5 |